Regional Weather Roundup
Issued by NWS

Home | Current Version | Previous Version | Graphics & Text | Print | Product List | Glossary On
Versions: 1 2 3 4 5 6 7 8 9 10 11 12 13 14 15 16 17 18 19 20 21 22 23 24 25 26 27 28 29 30 31 32 33 34 35 36 37 38 39 40 41 42 43 44 45 46 47 48 49 50
000
ASUS45 KPSR 221910
RWRAZ

ARIZONA HOURLY REGIONAL WEATHER ROUNDUP
NATIONAL WEATHER SERVICE PHOENIX AZ
1200 PM MST SAT JUL 22 2017

NOTE: FAIR INDICATES FEW OR NO CLOUDS BELOW 12,000 FEET WITH NO
SIGNIFICANT WEATHER AND/OR OBSTRUCTIONS TO VISIBILITY.

AZZ001>003-036-222000-
NORTHWEST ARIZONA

CITY           SKY/WX    TMP DP  RH WIND       PRES   REMARKS
BULLHEAD CITY  SUNNY    106  54  17 S7        29.82F HX 104
KINGMAN        SUNNY     96  55  25 NW9       30.05F
$$

AZZ004>008-015-016-018-222000-
NORTH CENTRAL ARIZONA

CITY           SKY/WX    TMP DP  RH WIND       PRES   REMARKS
GRAND CANYON   SUNNY     84  49  29 NE15G23   30.30S
WILLIAMS       MOSUNNY   81  52  36 NE10      30.29F
PRESCOTT       MOSUNNY   87  55  33 N12       30.16F
FLAGSTAFF      CLOUDY    77  53  43 VRB7      30.31F
PAYSON         MOSUNNY   82  61  47 W9        30.19F
PAGE           SUNNY     92  52  25 E3        30.12F
$$

AZZ009>014-017-222000-
NORTHEAST ARIZONA

CITY           SKY/WX    TMP DP  RH WIND       PRES   REMARKS
WINSLOW        MOSUNNY   87  55  33 NW12G17   30.16F
SAINT JOHNS    MOSUNNY   83  58  42 N7        30.17F
WINDOW ROCK    MOSUNNY   84  49  29 NE9G22    30.25F
SHOW LOW       PTSUNNY   73  55  53 N13G20    30.24F THUNDER
$$

AZZ540-542>544-546-548-222000-
GREATER PHOENIX AREA

CITY           SKY/WX    TMP DP  RH WIND       PRES   REMARKS
PHOENIX        MOSUNNY   97  58  27 VRB3      29.86F
BUCKEYE        SUNNY     99  55  23 S6        29.87F
GLENDALE       PTSUNNY   99  57  25 S9        29.89F
LUKE AFB       MOSUNNY   98  57  25 SE5       29.86F
DEER VALLEY    SUNNY     96  66  37 W8        29.88F
SCOTTSDALE     SUNNY     96  63  33 VRB6      29.90F
MESA-FALCON    MOSUNNY   97  64  34 W7        29.90F
MESA-GATEWAY   MOSUNNY   97  63  32 VRB6      29.90F
CHANDLER       SUNNY     99  63  30 SW10      29.88F HX 100
$$

AZZ539-553-222000-
SOUTHWEST MARICOPA COUNTY AND PINAL COUNTY

CITY           SKY/WX    TMP DP  RH WIND       PRES   REMARKS
CASA GRANDE    MOSUNNY   96  63  33 VRB6      29.91F
GILA BEND      FAIR     100  56  23 W7        29.85F
$$

AZZ503-504-507>509-222000-
SOUTHEAST ARIZONA

CITY           SKY/WX    TMP DP  RH WIND       PRES   REMARKS
TUCSON         MOSUNNY   92  63  38 N6        30.00F
DAVIS-MONTHAN  MOSUNNY   93  64  37 NW9       29.99F
NOGALES        SUNNY     86  65  49 VRB7      30.08F
SIERRA VISTA   PTSUNNY   75  68  78 CALM      30.14F HAZE
DOUGLAS        PTSUNNY   79  66  64 SE8       30.09F
SAFFORD        SUNNY     90  64  42 W14       29.98F
$$

AZZ532-222000-
SOUTHWEST ARIZONA

CITY           SKY/WX    TMP DP  RH WIND       PRES   REMARKS
YUMA           SUNNY    102  63  27 SW13      29.81F HX 104
$$

CAZ041-043-047-048-061-525>527-560>570-222000-
SOUTHERN CALIFORNIA

CITY           SKY/WX    TMP DP  RH WIND       PRES   REMARKS
DOWNTOWN L.A.  SUNNY     85  65  51 W5        29.90F
L.A. AIRPORT   MOSUNNY   76  66  71 W12       29.92S
SAN DIEGO      MOSUNNY   74  63  68 SW9       29.94S
BURBANK        SUNNY     85  61  44 CALM      29.91F
ONTARIO        SUNNY     88  60  38 SW10      29.91F
RIVERSIDE      SUNNY     87  61  41 W6        29.91F
PALM SPRINGS   SUNNY    104  51  17 VRB6      29.84F HX 101
EL CENTRO NAS  MOSUNNY  100  63  29 SE9       29.81F HX 102
IMPERIAL       MOSUNNY  101  65  30 VRB6      29.79F HX 104
BLYTHE         MOSUNNY  103  57  21 S6        29.83F HX 102
NEEDLES        SUNNY    109  54  16 S10       29.84F HX 107
$$

NVZ020-UTZ003-222000-
SOUTHERN NEVADA-UTAH

CITY           SKY/WX    TMP DP  RH WIND       PRES   REMARKS
LAS VEGAS      MOSUNNY  102  48  16 VRB6      29.93F
SALT LAKE CITY MOSUNNY   93  50  23 NE9       30.11S
$$

NMZ009-TXZ055-222000-
NEW MEXICO-WEST TEXAS

CITY           SKY/WX    TMP DP  RH WIND       PRES   REMARKS
ALBUQUERQUE    MOSUNNY   86  55  34 VRB5      30.15F
EL PASO        MOSUNNY   86  63  45 SE7       30.06F
$$


........................KEY........................
SKY/WX - SKY CONDITION/WEATHER
TMP    - TEMPERATURE IN FAHRENHEIT
DP     - DEW POINT IN FAHRENHEIT
RH     - RELATIVE HUMIDITY IN PERCENT
WIND   - DIRECTION AND SPEED IN MILES PER HOUR (MPH)
VRB    - VARIABLE WIND DIRECTION
PRES   - MEAN SEA LEVEL PRESSURE IN INCHES OF MERCURY
         F - FALLING PRESSURE   R - RISING PRESSURE
         S - STEADY PRESSURE
VSB    - VISIBILITY IN MILES
HX     - HEAT INDEX IN FAHRENHEIT
WCI    - WIND CHILL INDEX IN FAHRENHEIT
TC     - TEMPERATURE IN CELSIUS WHICH IS ALSO KNOWN AS
         TEMPERATURE IN CENTIGRADE
AFB    - AIR FORCE BASE
         LUKE AFB IS LUKE AIR FORCE BASE
         DAVIS-MONTHAN IS DAVIS-MONTHAN AIR FORCE BASE
NAS    - NAVAL AIR STATION
         EL CENTRO NAS IS EL CENTRO NAVAL AIR STATION
N/A    - NOT AVAILABLE




USA.gov is the U.S. government's official web portal to all federal, state and local government web resources and services.